Regional Weather Roundup
Issued by NWS

Home | Current Version | Previous Version | Text Only | Print | Product List | Glossary On
Versions: 1 2 3 4 5 6 7 8 9 10 11 12 13 14 15 16 17 18 19 20 21 22 23 24 25 26 27 28 29 30 31 32 33 34 35 36 37 38 39 40 41 42 43 44 45 46 47 48 49 50
000
ASUS43 KDTX 201910
RWRMI
MICHIGAN HOURLY REGIONAL WEATHER ROUNDUP
NATIONAL WEATHER SERVICE DETROIT/PONTIAC MI
ISSUED BY NATIONAL WEATHER SERVICE GRAND RAPIDS MI
300 PM EDT SUN MAY 20 2018

NOTE: "FAIR" INDICATES FEW OR NO CLOUDS BELOW 12,000 FEET WITH NO
SIGNIFICANT WEATHER AND/OR OBSTRUCTION TO VISIBILITY.

MIZ047>049-052>055-059>063-066>070-074>076-081>083-202000-
SOUTHEAST LOWER MICHIGAN

CITY           SKY/WX    TMP DP  RH WIND       PRES   REMARKS
ADRIAN         CLOUDY    63  56  78 CALM      30.18R
ALMA           CLOUDY    56  51  81 CALM      30.22S
ANN ARBOR      PTSUNNY   64  56  75 N5        30.17S
BAD AXE        PTSUNNY   54  47  78 N5        30.22S
DETROIT CITY   CLOUDY    60  53  77 N5        30.18R
DETROIT        CLOUDY    66  54  65 E6        30.16F
FLINT          CLOUDY    57  50  77 N6        30.20S
GROSSE ILE     CLOUDY    63  56  78 E3        30.17S
HILLSDALE      LGT RAIN  63  55  77 CALM      30.18R
HOWELL         CLOUDY    57  52  83 N3        30.19S

CITY           SKY/WX    TMP DP  RH WIND       PRES   REMARKS
JACKSON        CLOUDY    61  55  81 NW6       30.19R
LANSING        CLOUDY    58  52  80 VRB3      30.20S
MASON          CLOUDY    58  53  83 N5        30.20R
MONROE         CLOUDY    61  58  90 S6        30.17S
MT. CLEMENS    CLOUDY    58  57  98 N8        30.17S
PONTIAC        CLOUDY    60  53  77 NW6       30.17S
PORT HOPE        N/A     49  43  80 N5        30.22R
PORT HURON     CLOUDY    54  48  82 N3        30.19F
TRI CITIES     CLOUDY    56  47  71 E7        30.23R
YPSILANTI      CLOUDY    67  55  65 N5        30.17S
$$
MIZ043>046-050>051-056>058-064>065-071>073-077>080-202000-
SOUTHWEST LOWER MICHIGAN

CITY           SKY/WX    TMP DP  RH WIND       PRES   REMARKS
BATTLE CREEK   LGT RAIN  58  55  90 N3        30.21R
BENTON HARBOR  LGT RAIN  52  50  93 CALM      30.19F
BIG RAPIDS     FAIR      58  46  64 CALM      30.21S
COLDWATER      LGT RAIN  61  57  88 NW3       30.19S
HOLLAND        LGT RAIN  55  51  86 CALM      30.19F
GRAND RAPIDS   LGT RAIN  58  50  75 E3        30.19F
KALAMAZOO      CLOUDY    60  55  83 NE6       30.20S
MARSHALL       LGT RAIN  58  56  94 NW3       30.20R
MOUNT PLEASANT FAIR      58  49  72 CALM      30.21S
MUSKEGON       CLOUDY    57  48  72 NE7       30.21S
STURGIS        CLOUDY    61  59  92 NE7       30.17F
$$
MIZ016>042-202000-
NORTHERN LOWER MICHIGAN

CITY           SKY/WX    TMP DP  RH WIND       PRES   REMARKS
ALPENA         FAIR      63  46  54 NW8       30.20F
BEAVER ISLAND  FAIR      61  31  32 NW5       30.23S
BELLAIRE       FAIR      59  44  57 W8        30.21S
CADILLAC       FAIR      61  47  58 NE3       30.20R
CHARLEVOIX     FAIR      49  40  70 N6        30.27R
GAYLORD        FAIR      60  44  55 N7        30.19F
HOUGHTON LAKE  FAIR      61  46  57 W9        30.20S
MANISTEE       FAIR      53  42  66 NW12      30.23S
OSCODA         FAIR      52  40  62 E8        30.21S
PELLSTON       FAIR      63  23  21 N12       30.22S
TRAVERSE CITY  FAIR      53  43  68 NE6       30.22S
LUDINGTON      FAIR      52  44  72 NW5       30.22S
$$
MIZ007>008-015-202000-
EASTERN UPPER MICHIGAN

CITY           SKY/WX    TMP DP  RH WIND       PRES   REMARKS
KINROSS        FAIR      58  28  32 N16       30.21F
MACKINAC ISLAN FAIR      55  30  38 S6        30.22S
NEWBERRY       FAIR      60  26  27 N12       30.21F
S. S. MARIE    FAIR      57  34  41 NW15G22   30.22R
$$
MIZ004>006-011>014-085-202000-
CENTRAL UPPER MICHIGAN

CITY           SKY/WX    TMP DP  RH WIND       PRES   REMARKS
MANISTIQUE     FAIR      53  38  57 S7        30.23F
ESCANABA       FAIR      58  33  39 SE8       30.24S
SAWYER-GWINN   SUNNY     59  25  27 NE7       30.25F
$$
MIZ001>003-009>011-084-202000-
WESTERN UPPER MICHIGAN

CITY           SKY/WX    TMP DP  RH WIND       PRES   REMARKS
IRON MOUNTAIN  FAIR      67  24  19 SE7       30.22F
HOUGHTON       FAIR      63  32  31 NW7       30.24F
COPPER HARBOR    N/A     48  38  68 N10G17    30.24S
IRONWOOD       FAIR      64  35  34 N10       30.25F
$$

ABBREVIATIONS USED IN REMARKS
   TC - TEMPERATURE IN CELSIUS
  WCI - WIND CHILL INDEX
   HX - HEAT INDEX
  VSB - VISIBILITY




USA.gov is the U.S. government's official web portal to all federal, state and local government web resources and services.